Location: Hebron
(33.0265°N, 96.8636°W)
Time: 02:13:43
(UTC+00:00)

Cosmos 1538 Rocket - Pass Details

Date: 07 July 2022
Orbit: 752 x 791 km, 74.0° (Epoch: 16 August)

Event Time Altitude Azimuth Distance (km) Brightness Sun altitude
Exits shadow 09:19:59 - 150° (SSE) 2,562 6.5 -21.5°
Reaches altitude 10° 09:20:53 10° 144° (SE) 2,299 6.3 -21.4°
Maximum altitude 09:24:39 20° 98° (E) 1,689 6.1 -20.9°
Drops below altitude 10° 09:28:24 10° 51° (NE) 2,292 7.6 -20.4°
Sets 09:31:17 0° 35° (NE) 3,216 8.8 -19.9°
